This demonstration page uses our WeatherBlox Daily Observations layout. Learn more.

Left ArrowRight Arrow

Hourly Observations for May 25, 2019

Temp ( °F °C ) Dew Point ( °F °C ) Humidity (%) Winds ( mph kmh ) Pressure ( in mb ) Visibility ( mi km ) Precip ( " mm )
12:15 am 00:15 Clear 66 19 66 19 100 100 SSE 6 9 30.02 1017 10 16.0934 N/A
12:35 am 00:35 Clear 68 20 68 20 100 100 S 5 7 30.02 1017 10 16.0934 N/A
12:55 am 00:55 Clear 70 21 68 20 94 94 S 6 9 30.02 1016 10 16.0934 N/A
1:15 am 01:15 Clear 70 21 68 20 94 94 S 5 7 30.02 1016 10 16.0934 N/A
1:35 am 01:35 Clear 70 21 68 20 94 94 S 6 9 30.02 1016 10 16.0934 N/A
1:55 am 01:55 Clear 70 21 68 20 94 94 S 7 11 30.02 1016 10 16.0934 N/A
2:15 am 02:15 Clear 70 21 68 20 94 94 S 7 11 30.01 1016 10 16.0934 N/A
2:35 am 02:35 Clear 70 21 68 20 94 94 SSW 8 13 30.01 1016 10 16.0934 N/A
2:55 am 02:55 Clear 70 21 68 20 94 94 SSW 7 11 30.01 1016 10 16.0934 N/A
3:16 am 03:16 Clear 70 21 68 20 94 94 S 7 11 30 1016 10 16.0934 N/A
3:35 am 03:35 Clear 70 21 68 20 94 94 SSW 6 9 30 1016 10 16.0934 N/A
3:55 am 03:55 Clear 70 21 68 20 94 94 SW 7 11 30 1016 10 16.0934 N/A
4:15 am 04:15 Clear 70 21 68 20 94 94 SSW 7 11 29.99 1015 10 16.0934 N/A
4:35 am 04:35 Clear 70 21 68 20 94 94 SSW 6 9 29.99 1015 10 16.0934 N/A
4:55 am 04:55 Clear 70 21 68 20 94 94 SSW 6 9 29.99 1015 10 16.0934 N/A
5:15 am 05:15 Clear 70 21 68 20 94 94 SSW 7 11 29.99 1015 10 16.0934 N/A
5:35 am 05:35 Clear 70 21 68 20 94 94 SSW 7 11 29.99 1015 10 16.0934 N/A
5:55 am 05:55 Clear 70 21 68 20 94 94 SW 8 13 29.99 1015 10 16.0934 N/A
6:15 am 06:15 Clear 70 21 68 20 94 94 SW 9 15 29.99 1015 10 16.0934 N/A
6:35 am 06:35 Sunny 70 21 68 20 94 94 SW 9 15 29.99 1015 10 16.0934 N/A
6:55 am 06:55 Sunny 72 22 68 20 88 88 SW 8 13 29.99 1016 10 16.0934 N/A
7:15 am 07:15 Sunny 72 22 68 20 88 88 SW 10 17 29.99 1016 10 16.0934 N/A
7:35 am 07:35 Sunny 72 22 70 21 94 94 SW 10 17 30 1016 10 16.0934 N/A
7:55 am 07:55 Sunny 72 22 70 21 94 94 SW 12 19 30.01 1016 10 16.0934 N/A
8:16 am 08:16 Sunny 73 23 70 21 89 89 SW 10 17 30.02 1017 10 16.0934 N/A
8:55 am 08:55 Sunny 75 24 72 22 89 89 SW 12 19 30.02 1016 10 16.0934 N/A
9:15 am 09:15 Sunny 77 25 72 22 83 83 SW 13 20 30.01 1016 10 16.0934 N/A
9:35 am 09:35 Sunny 79 26 72 22 79 79 SW 15 24 30 1016 10 16.0934 N/A
9:55 am 09:55 Sunny 79 26 72 22 79 79 SW 14 22 29.99 1016 10 16.0934 N/A
10:15 am 10:15 Sunny 81 27 72 22 74 74 SW 14 22 29.99 1015 10 16.0934 N/A
10:36 am 10:36 Sunny 82 28 72 22 70 70 WSW 16 26 29.97 1015 10 16.0934 N/A
10:55 am 10:55 Sunny 82 28 72 22 70 70 WSW 10 17 29.97 1015 10 16.0934 N/A
11:15 am 11:15 Sunny 82 28 72 22 70 70 SW 17 28 29.96 1015 10 16.0934 N/A
11:35 am 11:35 Sunny 82 28 72 22 70 70 WSW 21 33 29.97 1015 10 16.0934 N/A
11:55 am 11:55 Sunny 82 28 72 22 70 70 WSW 18 30 29.97 1015 10 16.0934 N/A
12:16 pm 12:16 Sunny 82 28 72 22 70 70 SW 15 24 29.98 1015 10 16.0934 N/A
12:35 pm 12:35 Sunny 82 28 73 23 74 74 SW 17 28 29.98 1015 10 16.0934 N/A
12:55 pm 12:55 Partly Cloudy 84 29 73 23 70 70 WSW 15 24 29.98 1015 10 16.0934 N/A
1:15 pm 13:15 Partly Cloudy 84 29 72 22 66 66 WSW 22 35 29.98 1015 10 16.0934 N/A
1:35 pm 13:35 Partly Cloudy 84 29 73 23 70 70 SW 18 30 29.96 1015 10 16.0934 N/A
1:55 pm 13:55 Mostly Cloudy 82 28 72 22 70 70 SW 18 30 29.96 1015 10 16.0934 N/A
2:15 pm 14:15 Mostly Cloudy 84 29 72 22 66 66 WSW 20 31 29.95 1014 10 16.0934 N/A
2:35 pm 14:35 Mostly Cloudy 77 25 72 22 83 83 W 17 28 29.98 1015 5 8.0467 N/A
2:55 pm 14:55 Mostly Cloudy 75 24 73 23 94 94 W 10 17 29.99 1015 10 16.0934 N/A
3:15 pm 15:15 Mostly Cloudy 73 23 73 23 100 100 WNW 12 19 30 1016 10 16.0934 N/A
3:35 pm 15:35 Mostly Cloudy 72 22 72 22 100 100 WNW 13 20 30.01 1016 7 11.26538 N/A
3:55 pm 15:55 Mostly Cloudy 75 24 75 24 100 100 WNW 10 17 30.01 1016 3 4.82802 N/A
4:16 pm 16:16 Partly Cloudy 77 25 75 24 94 94 WNW 7 11 29.99 1016 10 16.0934 N/A
4:35 pm 16:35 Sunny 77 25 75 24 94 94 N N/A 29.99 1016 10 16.0934 N/A
4:56 pm 16:56 Partly Cloudy 79 26 75 24 89 89 NNW 3 6 29.99 1016 10 16.0934 N/A
5:15 pm 17:15 Partly Cloudy 79 26 75 24 89 89 N 5 7 29.99 1016 10 16.0934 N/A
5:35 pm 17:35 Partly Cloudy 81 27 75 24 84 84 N N/A 29.99 1015 10 16.0934 N/A
5:55 pm 17:55 Sunny 81 27 75 24 84 84 W 3 6 29.98 1015 10 16.0934 N/A
6:15 pm 18:15 Sunny 82 28 75 24 79 79 S 5 7 29.97 1015 10 16.0934 N/A
6:35 pm 18:35 Partly Cloudy 82 28 73 23 74 74 W 8 13 29.98 1015 10 16.0934 N/A
6:55 pm 18:55 Mostly Cloudy 82 28 72 22 70 70 W 12 19 29.98 1015 10 16.0934 N/A
7:16 pm 19:16 Partly Cloudy 82 28 72 22 70 70 W 13 20 29.98 1015 10 16.0934 N/A
7:35 pm 19:35 Sunny 82 28 70 21 66 66 W 12 19 29.99 1016 10 16.0934 N/A
7:55 pm 19:55 Sunny 81 27 68 20 66 66 W 13 20 30 1016 10 16.0934 N/A
8:15 pm 20:15 Sunny 81 27 68 20 66 66 W 10 17 30 1016 10 16.0934 N/A
8:35 pm 20:35 Sunny 79 26 70 21 74 74 W 6 9 29.99 1016 10 16.0934 N/A
8:55 pm 20:55 Sunny 75 24 70 21 83 83 WSW 5 7 30 1016 10 16.0934 N/A
9:15 pm 21:15 Clear 75 24 70 21 83 83 WSW 6 9 30 1016 10 16.0934 N/A
9:35 pm 21:35 Clear 73 23 70 21 89 89 SW 3 6 29.99 1016 10 16.0934 N/A
9:55 pm 21:55 Clear 73 23 70 21 89 89 SSW 5 7 29.99 1016 10 16.0934 N/A
10:15 pm 22:15 Clear 73 23 70 21 89 89 S 5 7 30 1016 10 16.0934 N/A
10:35 pm 22:35 Clear 72 22 68 20 88 88 SSW 5 7 30.01 1016 10 16.0934 N/A
10:55 pm 22:55 Clear 72 22 68 20 88 88 SSW 6 9 30.01 1016 10 16.0934 N/A
11:15 pm 23:15 Clear 73 23 70 21 89 89 SSW 6 9 30.01 1016 10 16.0934 N/A
11:35 pm 23:35 Clear 72 22 70 21 94 94 SSW 6 9 30 1016 10 16.0934 N/A
11:55 pm 23:55 Clear 72 22 70 21 94 94 SSW 6 9 30.01 1016 10 16.0934 N/A

Powered by AerisWeather